| time (UTC) | temp C | wind direction | speed KPH | gust KPH | rain 1hr cm | rain 24hr cm | rain mn cm | humidity % | barometer mb |
| 20260508230538 | 17 | 0 | 0.0 | 0.0 | 0.00 | 0.00 | 0.00 | 68 | 1009.8 |
| 20260508225638 | 17 | 0 | 0.0 | 0.0 | 0.00 | 0.00 | 0.00 | 66 | 1009.8 |
| 20260508224738 | 18 | 0 | 0.0 | 0.0 | 0.00 | 0.00 | 0.00 | 65 | 1009.7 |
| 20260508223837 | 18 | 0 | 0.0 | 0.0 | 0.00 | 0.00 | 0.00 | 60 | 1009.6 |
| 20260508222937 | 18 | 0 | 0.0 | 0.0 | 0.00 | 0.00 | 0.00 | 55 | 1009.6 |
| 20260508222038 | 18 | 0 | 0.0 | 0.0 | 0.00 | 0.00 | 0.00 | 55 | 1009.7 |
| 20260508221138 | 18 | 0 | 0.0 | 0.0 | 0.00 | 0.00 | 0.00 | 53 | 1009.6 |
| 20260508220237 | 18 | 0 | 0.0 | 0.0 | 0.00 | 0.00 | 0.00 | 53 | 1009.7 |
| 20260508215337 | 18 | 0 | 0.0 | 0.0 | 0.00 | 0.00 | 0.00 | 52 | 1009.7 |
| 20260508213537 | 18 | 301 | 0.0 | 4.8 | 0.00 | 0.00 | 0.00 | 51 | 1009.6 |
| 20260508212638 | 18 | 237 | 0.0 | 6.4 | 0.00 | 0.00 | 0.00 | 51 | 1009.6 |
| 20260508211737 | 18 | 0 | 0.0 | 0.0 | 0.00 | 0.00 | 0.00 | 52 | 1009.7 |
| 20260508210838 | 18 | 0 | 0.0 | 0.0 | 0.00 | 0.00 | 0.00 | 51 | 1009.9 |
| 20260508205939 | 19 | 223 | 0.0 | 1.6 | 0.00 | 0.00 | 0.00 | 52 | 1010.1 |
| 20260508205037 | 19 | 0 | 0.0 | 0.0 | 0.00 | 0.00 | 0.00 | 51 | 1010.1 |
| 20260508204138 | 19 | 299 | 0.0 | 1.6 | 0.00 | 0.00 | 0.00 | 50 | 1010.3 |
| 20260508203237 | 19 | 253 | 0.0 | 6.4 | 0.00 | 0.00 | 0.00 | 50 | 1010.2 |
| 20260508202337 | 19 | 269 | 1.6 | 11.3 | 0.00 | 0.00 | 0.00 | 49 | 1010.5 |
| 20260508201437 | 19 | 277 | 1.6 | 11.3 | 0.00 | 0.00 | 0.00 | 48 | 1010.6 |
| 20260508195638 | 19 | 260 | 3.2 | 17.7 | 0.00 | 0.00 | 0.00 | 47 | 1010.6 |
| 20260508194737 | 19 | 258 | 4.8 | 16.1 | 0.00 | 0.00 | 0.00 | 46 | 1010.7 |
| 20260508193839 | 20 | 255 | 4.8 | 19.3 | 0.00 | 0.00 | 0.00 | 45 | 1010.7 |
| 20260508192937 | 20 | 237 | 6.4 | 27.4 | 0.00 | 0.00 | 0.00 | 45 | 1010.8 |
| 20260508191137 | 20 | 241 | 6.4 | 19.3 | 0.00 | 0.00 | 0.00 | 46 | 1011.0 |
| 20260508190237 | 20 | 253 | 8.0 | 20.9 | 0.00 | 0.00 | 0.00 | 46 | 1011.2 |
| 20260508184438 | 20 | 231 | 8.0 | 20.9 | 0.00 | 0.00 | 0.00 | 46 | 1011.5 |
| 20260508183538 | 20 | 231 | 9.7 | 24.1 | 0.00 | 0.00 | 0.00 | 47 | 1011.6 |
| 20260508182637 | 20 | 258 | 8.0 | 25.7 | 0.00 | 0.00 | 0.00 | 48 | 1011.8 |
| 20260508181737 | 20 | 238 | 6.4 | 19.3 | 0.00 | 0.00 | 0.00 | 49 | 1011.8 |
| 20260508180838 | 20 | 255 | 4.8 | 19.3 | 0.00 | 0.00 | 0.00 | 50 | 1012.0 |
| 20260508175038 | 19 | 252 | 8.0 | 20.9 | 0.00 | 0.00 | 0.00 | 49 | 1012.3 |
| 20260508174137 | 19 | 266 | 4.8 | 17.7 | 0.00 | 0.00 | 0.00 | 49 | 1012.3 |
| 20260508172338 | 19 | 236 | 8.0 | 24.1 | 0.00 | 0.00 | 0.00 | 48 | 1012.6 |
| 20260508171438 | 20 | 253 | 6.4 | 24.1 | 0.00 | 0.00 | 0.00 | 48 | 1012.7 |
| 20260508170537 | 20 | 244 | 8.0 | 22.5 | 0.00 | 0.00 | 0.00 | 48 | 1012.8 |
| 20260508165637 | 20 | 259 | 6.4 | 19.3 | 0.00 | 0.00 | 0.00 | 49 | 1012.9 |
| 20260508164737 | 20 | 275 | 9.7 | 20.9 | 0.00 | 0.00 | 0.00 | 48 | 1013.1 |
| 20260508163837 | 20 | 262 | 9.7 | 20.9 | 0.00 | 0.00 | 0.00 | 47 | 1013.2 |
| 20260508162938 | 20 | 259 | 4.8 | 19.3 | 0.00 | 0.00 | 0.00 | 49 | 1013.3 |
| 20260508162038 | 19 | 256 | 9.7 | 25.7 | 0.00 | 0.00 | 0.00 | 48 | 1013.4 |
| 20260508161138 | 19 | 231 | 11.3 | 27.4 | 0.00 | 0.00 | 0.00 | 49 | 1013.3 |
| 20260508160237 | 19 | 241 | 8.0 | 22.5 | 0.00 | 0.00 | 0.00 | 49 | 1013.5 |
| 20260508155337 | 19 | 249 | 6.4 | 19.3 | 0.00 | 0.00 | 0.00 | 52 | 1013.5 |
| 20260508153538 | 18 | 256 | 3.2 | 12.9 | 0.00 | 0.00 | 0.00 | 53 | 1013.8 |
| 20260508152637 | 17 | 207 | 6.4 | 19.3 | 0.00 | 0.00 | 0.00 | 53 | 1013.8 |
| 20260508151737 | 17 | 211 | 3.2 | 12.9 | 0.00 | 0.00 | 0.00 | 55 | 1013.8 |
| 20260508150837 | 17 | 191 | 3.2 | 12.9 | 0.00 | 0.00 | 0.00 | 56 | 1014.1 |
| 20260508145937 | 16 | 237 | 3.2 | 17.7 | 0.00 | 0.00 | 0.00 | 56 | 1014.0 |
| 20260508145036 | 16 | 230 | 4.8 | 20.9 | 0.00 | 0.00 | 0.00 | 55 | 1013.8 |
| 20260508144137 | 16 | 229 | 3.2 | 17.7 | 0.00 | 0.00 | 0.00 | 56 | 1014.1 |
| 20260508143238 | 16 | 240 | 4.8 | 17.7 | 0.00 | 0.00 | 0.00 | 55 | 1014.1 |
| 20260508141437 | 15 | 242 | 4.8 | 16.1 | 0.00 | 0.00 | 0.00 | 56 | 1014.5 |
| 20260508140536 | 15 | 245 | 4.8 | 20.9 | 0.00 | 0.00 | 0.00 | 55 | 1014.5 |
| 20260508133837 | 15 | 233 | 6.4 | 22.5 | 0.00 | 0.00 | 0.00 | 56 | 1014.6 |
| 20260508132936 | 15 | 231 | 3.2 | 17.7 | 0.00 | 0.00 | 0.00 | 56 | 1014.5 |
| 20260508132036 | 14 | 231 | 3.2 | 16.1 | 0.00 | 0.00 | 0.00 | 58 | 1014.5 |
| 20260508131136 | 13 | 224 | 3.2 | 16.1 | 0.00 | 0.00 | 0.00 | 59 | 1014.6 |
| 20260508130237 | 13 | 242 | 4.8 | 19.3 | 0.00 | 0.00 | 0.00 | 59 | 1014.6 |
| 20260508125337 | 12 | 230 | 6.4 | 16.1 | 0.00 | 0.00 | 0.00 | 60 | 1014.4 |
| 20260508124436 | 12 | 222 | 3.2 | 11.3 | 0.00 | 0.00 | 0.00 | 61 | 1014.4 |
| 20260508123538 | 12 | 232 | 4.8 | 12.9 | 0.00 | 0.00 | 0.00 | 61 | 1014.4 |
| 20260508122636 | 12 | 215 | 4.8 | 14.5 | 0.00 | 0.00 | 0.00 | 63 | 1014.4 |
| 20260508121736 | 11 | 206 | 3.2 | 9.7 | 0.00 | 0.00 | 0.00 | 66 | 1014.4 |
| 20260508120836 | 10 | 204 | 0.0 | 8.0 | 0.00 | 0.00 | 0.00 | 68 | 1014.6 |
| 20260508114136 | 9 | 210 | 1.6 | 8.0 | 0.00 | 0.00 | 0.00 | 70 | 1014.3 |
| 20260508113237 | 8 | 209 | 0.0 | 4.8 | 0.00 | 0.00 | 0.00 | 70 | 1014.1 |
| 20260508112338 | 8 | 236 | 0.0 | 4.8 | 0.00 | 0.00 | 0.00 | 71 | 1014.1 |
| 20260508111436 | 8 | 234 | 0.0 | 6.4 | 0.00 | 0.00 | 0.00 | 72 | 1014.1 |
| 20260508110536 | 8 | 236 | 0.0 | 4.8 | 0.00 | 0.00 | 0.00 | 72 | 1014.0 |
| 20260508105636 | 8 | 257 | 0.0 | 1.6 | 0.00 | 0.00 | 0.00 | 73 | 1013.9 |
| 20260508104736 | 7 | 257 | 0.0 | 6.4 | 0.00 | 0.00 | 0.00 | 74 | 1013.8 |
| 20260508103836 | 7 | 0 | 0.0 | 0.0 | 0.00 | 0.00 | 0.00 | 75 | 1013.8 |
| 20260508102937 | 7 | 0 | 0.0 | 0.0 | 0.00 | 0.00 | 0.00 | 76 | 1013.7 |
| 20260508102036 | 7 | 0 | 0.0 | 0.0 | 0.00 | 0.00 | 0.00 | 76 | 1013.7 |
| 20260508101136 | 7 | 0 | 0.0 | 0.0 | 0.00 | 0.00 | 0.00 | 76 | 1013.7 |
| 20260508100236 | 6 | 0 | 0.0 | 0.0 | 0.00 | 0.00 | 0.00 | 76 | 1013.8 |
| 20260508095337 | 6 | 0 | 0.0 | 0.0 | 0.00 | 0.00 | 0.00 | 76 | 1013.8 |
| 20260508094437 | 6 | 0 | 0.0 | 0.0 | 0.00 | 0.00 | 0.00 | 76 | 1013.9 |
| 20260508093536 | 6 | 0 | 0.0 | 0.0 | 0.00 | 0.00 | 0.00 | 75 | 1013.9 |
| 20260508092636 | 6 | 0 | 0.0 | 0.0 | 0.00 | 0.00 | 0.00 | 74 | 1014.1 |
| 20260508091736 | 6 | 0 | 0.0 | 0.0 | 0.00 | 0.00 | 0.00 | 74 | 1014.0 |
| 20260508090837 | 6 | 0 | 0.0 | 0.0 | 0.00 | 0.00 | 0.00 | 73 | 1013.9 |
| 20260508085936 | 6 | 0 | 0.0 | 0.0 | 0.00 | 0.00 | 0.00 | 72 | 1014.0 |
| 20260508085037 | 6 | 0 | 0.0 | 0.0 | 0.00 | 0.00 | 0.00 | 71 | 1014.0 |
| 20260508084136 | 7 | 0 | 0.0 | 0.0 | 0.00 | 0.00 | 0.00 | 70 | 1014.0 |
| 20260508083237 | 7 | 0 | 0.0 | 0.0 | 0.00 | 0.00 | 0.00 | 69 | 1014.0 |
| 20260508082336 | 7 | 0 | 0.0 | 0.0 | 0.00 | 0.00 | 0.00 | 68 | 1014.1 |
| 20260508080536 | 7 | 0 | 0.0 | 0.0 | 0.00 | 0.00 | 0.00 | 67 | 1014.0 |
| 20260508075636 | 8 | 0 | 0.0 | 0.0 | 0.00 | 0.00 | 0.00 | 67 | 1013.9 |
| 20260508074737 | 8 | 0 | 0.0 | 0.0 | 0.00 | 0.00 | 0.00 | 67 | 1013.9 |
| 20260508073836 | 8 | 0 | 0.0 | 0.0 | 0.00 | 0.00 | 0.00 | 67 | 1013.8 |
| 20260508072936 | 8 | 0 | 0.0 | 0.0 | 0.00 | 0.00 | 0.00 | 66 | 1013.9 |
| 20260508072037 | 8 | 0 | 0.0 | 0.0 | 0.00 | 0.00 | 0.00 | 66 | 1014.0 |
| 20260508071136 | 8 | 0 | 0.0 | 0.0 | 0.00 | 0.00 | 0.00 | 66 | 1014.2 |
| 20260508070236 | 8 | 0 | 0.0 | 0.0 | 0.00 | 0.00 | 0.00 | 66 | 1014.0 |
| 20260508064436 | 8 | 0 | 0.0 | 0.0 | 0.00 | 0.00 | 0.00 | 65 | 1014.3 |
| 20260508062636 | 8 | 244 | 0.0 | 6.4 | 0.00 | 0.00 | 0.00 | 65 | 1014.5 |
| 20260508061737 | 8 | 235 | 0.0 | 6.4 | 0.00 | 0.00 | 0.00 | 65 | 1014.4 |
| 20260508060836 | 8 | 230 | 1.6 | 8.0 | 0.00 | 0.00 | 0.00 | 65 | 1014.4 |
| 20260508055036 | 8 | 235 | 0.0 | 8.0 | 0.00 | 0.00 | 0.00 | 66 | 1014.4 |
| 20260508054137 | 8 | 240 | 0.0 | 4.8 | 0.00 | 0.00 | 0.00 | 66 | 1014.5 |
| 20260508053237 | 8 | 262 | 0.0 | 6.4 | 0.00 | 0.00 | 0.00 | 66 | 1014.5 |
| 20260508052335 | 8 | 249 | 0.0 | 6.4 | 0.00 | 0.00 | 0.00 | 66 | 1014.4 |
| 20260508051436 | 8 | 241 | 0.0 | 1.6 | 0.00 | 0.00 | 0.00 | 66 | 1014.5 |
| 20260508050535 | 8 | 0 | 0.0 | 0.0 | 0.00 | 0.00 | 0.00 | 65 | 1014.6 |
| 20260508045635 | 9 | 0 | 0.0 | 0.0 | 0.00 | 0.00 | 0.00 | 64 | 1014.5 |
| 20260508044736 | 9 | 0 | 0.0 | 0.0 | 0.00 | 0.00 | 0.00 | 63 | 1014.4 |
| 20260508043837 | 9 | 0 | 0.0 | 0.0 | 0.00 | 0.00 | 0.00 | 61 | 1014.4 |
| 20260508042935 | 10 | 0 | 0.0 | 0.0 | 0.00 | 0.00 | 0.00 | 60 | 1014.4 |
| 20260508042035 | 10 | 0 | 0.0 | 0.0 | 0.00 | 0.00 | 0.00 | 60 | 1014.3 |
| 20260508041136 | 10 | 0 | 0.0 | 0.0 | 0.00 | 0.00 | 0.00 | 60 | 1014.4 |
| 20260508040235 | 10 | 0 | 0.0 | 0.0 | 0.00 | 0.00 | 0.00 | 59 | 1014.3 |
| 20260508035336 | 10 | 0 | 0.0 | 0.0 | 0.00 | 0.00 | 0.00 | 59 | 1014.4 |
| 20260508034435 | 10 | 0 | 0.0 | 0.0 | 0.00 | 0.00 | 0.00 | 59 | 1014.3 |
| 20260508032635 | 10 | 198 | 0.0 | 4.8 | 0.00 | 0.00 | 0.00 | 60 | 1014.3 |
| 20260508031735 | 10 | 0 | 0.0 | 0.0 | 0.00 | 0.00 | 0.00 | 60 | 1014.4 |
| 20260508030835 | 10 | 0 | 0.0 | 0.0 | 0.00 | 0.00 | 0.00 | 61 | 1014.3 |
| 20260508025936 | 10 | 0 | 0.0 | 0.0 | 0.00 | 0.00 | 0.00 | 61 | 1014.2 |
| 20260508025036 | 10 | 0 | 0.0 | 0.0 | 0.00 | 0.00 | 0.00 | 61 | 1014.2 |
| 20260508023235 | 10 | 0 | 0.0 | 0.0 | 0.00 | 0.00 | 0.00 | 60 | 1014.1 |
| 20260508022336 | 10 | 0 | 0.0 | 0.0 | 0.00 | 0.00 | 0.00 | 59 | 1014.1 |
| 20260508021436 | 11 | 0 | 0.0 | 0.0 | 0.00 | 0.00 | 0.00 | 59 | 1014.0 |
| 20260508020535 | 11 | 0 | 0.0 | 0.0 | 0.00 | 0.00 | 0.00 | 59 | 1013.9 |
| 20260508013835 | 11 | 0 | 0.0 | 0.0 | 0.00 | 0.00 | 0.00 | 56 | 1014.1 |
| 20260508012935 | 12 | 0 | 0.0 | 0.0 | 0.00 | 0.00 | 0.00 | 56 | 1014.1 |
| 20260508012035 | 12 | 0 | 0.0 | 0.0 | 0.00 | 0.00 | 0.00 | 53 | 1014.0 |
| 20260508011136 | 12 | 0 | 0.0 | 0.0 | 0.00 | 0.00 | 0.00 | 51 | 1014.0 |
| 20260508010236 | 12 | 0 | 0.0 | 0.0 | 0.00 | 0.00 | 0.00 | 49 | 1014.1 |
| 20260508005335 | 13 | 0 | 0.0 | 0.0 | 0.00 | 0.00 | 0.00 | 47 | 1014.0 |
| 20260508004435 | 13 | 0 | 0.0 | 0.0 | 0.00 | 0.00 | 0.00 | 46 | 1014.1 |
| 20260508002635 | 13 | 0 | 0.0 | 0.0 | 0.00 | 0.00 | 0.00 | 45 | 1013.9 |
| 20260508001735 | 14 | 0 | 0.0 | 0.0 | 0.00 | 0.00 | 0.00 | 44 | 1013.8 |
| 20260508000836 | 14 | 275 | 0.0 | 11.3 | 0.00 | 0.00 | 0.00 | 43 | 1013.9 |
| 20260507235035 | 15 | 246 | 0.0 | 9.7 | 0.00 | 0.00 | 0.00 | 44 | 1013.7 |
| 20260507234135 | 15 | 231 | 1.6 | 8.0 | 0.00 | 0.00 | 0.00 | 41 | 1013.6 |
| 20260507233236 | 15 | 223 | 0.0 | 8.0 | 0.00 | 0.00 | 0.00 | 42 | 1013.6 |
| 20260507232336 | 15 | 289 | 0.0 | 9.7 | 0.00 | 0.00 | 0.00 | 42 | 1013.8 |